Back to catalog

COSMOS 970 DEB

AliveLEO
NORAD 64966·DEBRIS·🇷🇺 Russia

Launched Dec 21, 1977 from Baikonur Cosmodrome

Loading…

Next Passes (next 24 hours)

TLE

StaleSource: Space-Track

Epoch: Sep 6, 2026, 09:49 UTC

1 64966U 77121CB  26249.40935563  .00000214  00000-0  28095-3 0  9991
2 64966  65.8131 290.7337 0102605 150.5271 210.1633 13.78373712642755

Track COSMOS 970 DEB in real time with AllMySat

Download on the App Store